Location: Kellogg
(38.0159°N, 90.0546°W)
Time: 13:40:11
(UTC+00:00)

ARIANE 6 FM1 Upper Stage - Visible Passes

Search period start: 21 January 2026 00:00
Search period end: 31 January 2026 00:00
Orbit: 522 x 610 km, 62.0° (Epoch: 20 January)

Date Brightness Start Highest point End Pass type
(mag) Time Alt. Az. Time Alt. Az. Time Alt. Az.
21 Jan 4.1 01:34:11 10° WSW 01:37:06 35° W 01:37:06 35° W visible
21 Jan 3.8 23:56:01 10° S 23:59:25 25° ESE 00:01:59 14° ENE visible
22 Jan 4.4 01:34:45 10° WSW 01:38:02 28° NW 01:38:02 28° NW visible
22 Jan 3.2 23:55:39 10° S 23:59:29 39° ESE 00:02:50 12° NE visible
23 Jan 4.8 01:35:31 10° W 01:38:36 20° NW 01:38:53 20° NW visible
23 Jan 2.7 23:55:30 10° SSW 23:59:33 62° ESE 00:03:33 10° NE visible
24 Jan 5.1 01:36:35 10° WNW 01:38:55 15° NW 01:39:37 14° NNW visible
24 Jan 2.6 23:55:34 10° SW 23:59:41 84° NW 00:03:43 10° NNE visible
25 Jan 5.4 01:38:18 10° NW 01:39:16 11° NW 01:40:15 10° NNW visible
25 Jan 3.3 23:55:48 10° SW 23:59:49 54° NW 00:03:46 10° NNE visible
26 Jan 4.0 23:56:12 10° WSW 23:59:59 35° NW 00:03:43 10° NNE visible
27 Jan 4.6 23:56:48 10° WSW 00:00:12 25° NW 00:03:33 10° N visible
28 Jan 5.0 23:57:37 10° W 00:00:26 18° NW 00:03:14 10° N visible
29 Jan 5.2 23:58:48 10° WNW 00:00:43 13° NW 00:02:38 10° NNW visible
